Find Starlink 34667

NORAD ID: 64815 Int'l Des: 2025-150 Owner: SPXS Country: US Constellation: starlink operational
LEOCIRCULAR

Live Position

Loading 3D Globe...

About Starlink 34667

Description loading...

Upcoming Passes

Passes for default location (London). Set your location on the main map for personalized predictions.

Altitude History

Loading altitude history...

Two-Line Element Set

1 64815U 25150AB 26106.25640887 .00002245 00000-0 19584-3 0 9995
2 64815 70.0029 39.7450 0002651 272.2954 87.7901 14.98335169 42149
Epoch: Apr 16, 2026 • Age: 18 hours

Current Status

Altitude 576.1 km
Velocity 7.57 km/s
Sub-Earth Point -10.84°S, 167.11°W
Launch Date Jul 16, 2025
Age 0.7 years
Type internet

Technical Details

Classification Payload
Mass 575.00 kg
Dry Mass 530.00 kg
Total Mass 575.00 kg
Length 0.30 m
Diameter 4.10 m
Span 29.00 m
Shape Box + pan
Manufacturer SPXS
Bus Type Starlink V2MO
Phase Status In Orbit
Owner/State SPXS/US

Most Searched